User: anonymous   Login
Location: Banksville Park
(38.5557°N, 75.1182°W)
Time: 13:22:24
(UTC+00:00)
Language:

Cosmos 1980 Rocket - Orbit

View from above orbital plane
View from above orbital plane
View from above satellite
View from above satellite

Ground track
Ground track

The orbit data is extracted from the following two-line orbital elements,

1 19650U 88102B   20330.92653717 -.00000250 +00000-0 -10299-3 0  9991
2 19650 070.9989 250.3617 0012087 064.4724 295.7648 14.15794275653734
Epoch (UTC): 25 November 2020 22:14:12
Eccentricity: 0.0012087
inclination: 70.9989°
perigee height: 831 km
apogee height: 848 km
right ascension of ascending node: 250.3617°
argument of perigee: 64.4724°
revolutions per day: 14.15794275
mean anomaly at epoch: 295.7648°
orbit number at epoch: 65373

The dashed part of the orbit path shows where the satellite is in the earth's shadow,  

DLR